Weather in Kurya

Russia / Udmurt Republic     57°42′36″N   52°04′23″E
temp.,
°C
wind,
m/s
gust,
m/s
humid.,
%
clouds,
%
prec.,
mm/h
press.,
hPa
HPBL,
m
5 august, thu
thu501:00+15wnw399817 0.0 1011278
04:00+15nw411964 0.0 1011331
07:00+17nw49920 0.0 1011370
10:00+20nnw69687 0.0 1012819
13:00+23nw56503 0.0 10131691
16:00+23nw554657 0.0 10131854
19:00+20nw485658 0.0 1014399
22:00+15nnw37708 0.0 1014117
6 august, fri
fri601:00+13n35788 0.0 101678
04:00+11n357617 0.0 101766
07:00+14n35660 0.0 1017168
10:00+19nnw45490 0.0 1018929
13:00+21nnw45425 0.0 10171674
16:00+21nnw45410 0.0 10171719
19:00+18n355778 0.0 1017133
22:00+13n2269100 0.0 101818
7 august, sat
sat701:00+13n2267100 0.0 101817
04:00+13n2268100 0.0 101833
07:00+14nne1267100 0.0 101981
10:00+18nw2256100 0.0 1019626
13:00+20nw344736 0.0 10191427
16:00+21nnw444515 0.0 10181636
19:00+19n35605 0.0 1019149
22:00+13ne337275 0.0 102030
8 august, sun
sun801:00+12ne227516 0.0 102012
04:00+13ene126767 0.0 102135
07:00+13e236896 0.0 102198
10:00+17ese115696 0.0 1021322
13:00+21ese0145100 0.0 1021662
16:00+23n014384 0.0 1020999
19:00+21e115881 0.0 102011
22:00+16e2268100 0.0 102121
9 august, mon
mon901:00+14ese347485 0.0 102155
04:00+13se237790 0.0 102149
07:00+16sse3672100 0.0 1020167
10:00+21sse4657100 0.0 1020405
13:00+22sse4555100 0.0 1019497
16:00+25s564998 0.0 1018826
19:00+23se35665 0.0 1017117
22:00+17s37846 0.1 1017101